"Pseudo-MPEC" for P10Or69

Created 2019 Jun 20 19:07:23 UT using Find_Orb

Click here for an explanation of pseudo-MPECs

 
 Astrometry: 
     P10Or69  C2019 05 31cwo\BmUjAstrometryu_CwZnj_0hW==Cjp).yG+n]Mb]\,XvO0VDF51
     P10Or69  C2019 05 31Tp.p8redacted;4NUPExu;\)o)hclick=f;Y#Qe\MoF^9TGpl6x!F51
     P10Or69  C2019 05 31@C;9\xbe@%+here59.gXDnMjR@j`B;RX9Tx7.nPDFlcgKndCforCF51
     P10Or69  C2019 05 31!8JkDE6+AQ7yjEQ[-y1QW:A)bwm?uj@3oe1:!p[R.4w-?X;?Dls!F51
     P10Or69  C2019 06 01a:*#kRBfBS7(e+][f6CTgQtylmw8fexplanationySZ]WKiSlfJEF51
     P10Or69  C2019 06 01W,dci)YC^FtXF@KCYkvfK4CPWQBC!B!-,v,GVP_V$qVyvTXg*x8rF51
     P10Or69  C2019 06 01BCPs?sNaN[Hl1TnA^SR=%.!NiGL[?H$ouDiI_q^-dp2kTeCqjRglF51
     P10Or69  C2019 06 01n;5oBp5jO^fM'i2yNt=x6Oijn39?]_gyt]ujLesd+Flu3kI-bGC7F51
     P10Or69  C2019 06 01jg+W]DvA)tW!o'4uk@B7;U\D?9[/Ag?=_#[3Z6(\q2=\.TQ=7oY[F51

Station data:
(F51) Pan-STARRS 1, Haleakala  (N20.707235 W156.255910)  US/Hawaii.
   Observers N. Primak, A. Schultz, S. Watters, J. Thiel, T. Goggia. Measurer
   PS1 Science Consortium. 1.8-m Ritchey-Chrétien + CCD.

Orbital elements:  P10Or69
   Perihelion 2021 Oct 18.335531 +/- 495 TT =  8:03:09 (JD 2459505.835531)
Epoch 2019 Jun  1.0 TT = JDT 2458635.5                        AutoNEOCP
M 288.98351674 +/- 90               (J2000 ecliptic)
n   0.08159667 +/- 0.145            Peri.  162.67228 +/- 70
a   5.26446711 +/- 6.24             Node   110.15662 +/- 31
e   0.2276797 +/- 0.204             Incl.   27.73389 +/- 17
P  12.08                   H 14.9   G  0.15   U 11.5  SR
q 4.06585466 +/- 2.01    Q 6.46307956 +/- 73.3
From 9 observations 2019 May 31-June 1 (25.0 hr); mean residual 0".09
Residuals in arcseconds: 
190531 F51  .04-  .07+    190531 F51  .03-  .10-    190601 F51  .11+  .07-    
190531 F51  .05+  .15+    190601 F51  .16-  .06-    190601 F51  .09+  .11+    
190531 F51  .03+  .11-    190601 F51  .06-  .08-    190601 F51  .02+  .11+    

Ephemerides (geocentric):
Date (UTC) HH   RA              Dec         delta   r     elong  mag " sig PA
---- -- -- --  -------------   -----------  ------ ------ -----  --- ---- ---
2019 06 20 19  11 37 09.493   +29 20 34.95  5.2713 5.1045  75.1 22.7  984  21
2019 06 20 20  11 37 10.529   +29 20 20.01  5.2718 5.1045  75.0 22.7  988  21
2019 06 20 21  11 37 11.567   +29 20 05.07  5.2723 5.1044  75.0 22.7  992  21
2019 06 20 22  11 37 12.605   +29 19 50.12  5.2728 5.1043  75.0 22.7  996  21
2019 06 20 23  11 37 13.644   +29 19 35.17  5.2732 5.1043  74.9 22.7 1000  21
2019 06 21 00  11 37 14.685   +29 19 20.22  5.2737 5.1042  74.9 22.7 1003  21
2019 06 21 01  11 37 15.727   +29 19 05.26  5.2742 5.1041  74.9 22.7 1007  21
2019 06 21 02  11 37 16.769   +29 18 50.30  5.2747 5.1040  74.8 22.7 1011  21
2019 06 21 03  11 37 17.813   +29 18 35.34  5.2752 5.1040  74.8 22.7 1015  21
2019 06 21 04  11 37 18.858   +29 18 20.37  5.2757 5.1039  74.8 22.7 1019  21
2019 06 21 05  11 37 19.904   +29 18 05.39  5.2761 5.1038  74.7 22.7 1023  21
2019 06 21 06  11 37 20.951   +29 17 50.42  5.2766 5.1037  74.7 22.7 1027  21
2019 06 21 07  11 37 21.999   +29 17 35.44  5.2771 5.1037  74.7 22.7 1031  21
2019 06 21 08  11 37 23.048   +29 17 20.45  5.2776 5.1036  74.7 22.7 1035  21
2019 06 21 09  11 37 24.098   +29 17 05.46  5.2781 5.1035  74.6 22.7 1039  21
2019 06 21 10  11 37 25.149   +29 16 50.47  5.2786 5.1035  74.6 22.7 1043  21
2019 06 21 11  11 37 26.201   +29 16 35.48  5.2790 5.1034  74.6 22.7 1047  21
2019 06 21 12  11 37 27.255   +29 16 20.48  5.2795 5.1033  74.5 22.7 1051  21
2019 06 21 13  11 37 28.309   +29 16 05.48  5.2800 5.1032  74.5 22.7 1055  21
2019 06 21 14  11 37 29.365   +29 15 50.47  5.2805 5.1032  74.5 22.7 1059  21
2019 06 21 15  11 37 30.421   +29 15 35.46  5.2810 5.1031  74.4 22.7 1063  21
2019 06 21 16  11 37 31.479   +29 15 20.45  5.2815 5.1030  74.4 22.7 1067  21
2019 06 21 17  11 37 32.537   +29 15 05.43  5.2819 5.1029  74.4 22.7 1071  21
2019 06 21 18  11 37 33.597   +29 14 50.41  5.2824 5.1029  74.3 22.7 1075  21
2019 06 21 19  11 37 34.658   +29 14 35.39  5.2829 5.1028  74.3 22.7 1079  21
2019 06 21 20  11 37 35.720   +29 14 20.36  5.2834 5.1027  74.3 22.7 1083  21
2019 06 21 21  11 37 36.783   +29 14 05.33  5.2839 5.1027  74.3 22.7 1087  21
2019 06 21 22  11 37 37.847   +29 13 50.29  5.2844 5.1026  74.2 22.7 1091  21
2019 06 21 23  11 37 38.912   +29 13 35.25  5.2848 5.1025  74.2 22.7 1095  21
2019 06 22 00  11 37 39.978   +29 13 20.21  5.2853 5.1024  74.2 22.7 1099  21
2019 06 22 01  11 37 41.045   +29 13 05.16  5.2858 5.1024  74.1 22.7 1103  21
2019 06 22 02  11 37 42.113   +29 12 50.11  5.2863 5.1023  74.1 22.7 1107  21
2019 06 22 03  11 37 43.182   +29 12 35.06  5.2868 5.1022  74.1 22.7 1111  21
2019 06 22 04  11 37 44.253   +29 12 20.00  5.2873 5.1021  74.0 22.7 1115  21
2019 06 22 05  11 37 45.324   +29 12 04.94  5.2877 5.1021  74.0 22.7 1120  21
2019 06 22 06  11 37 46.396   +29 11 49.88  5.2882 5.1020  74.0 22.7 1124  21
2019 06 22 07  11 37 47.470   +29 11 34.81  5.2887 5.1019  73.9 22.7 1128  21
2019 06 22 08  11 37 48.544   +29 11 19.74  5.2892 5.1019  73.9 22.7 1132  21
2019 06 22 09  11 37 49.620   +29 11 04.66  5.2897 5.1018  73.9 22.7 1136  21
2019 06 22 10  11 37 50.697   +29 10 49.58  5.2901 5.1017  73.8 22.7 1140  21
2019 06 22 11  11 37 51.774   +29 10 34.50  5.2906 5.1016  73.8 22.7 1144  21
2019 06 22 12  11 37 52.853   +29 10 19.41  5.2911 5.1016  73.8 22.7 1148  21
2019 06 22 13  11 37 53.933   +29 10 04.32  5.2916 5.1015  73.8 22.7 1153  21
2019 06 22 14  11 37 55.014   +29 09 49.23  5.2921 5.1014  73.7 22.7 1157  21
2019 06 22 15  11 37 56.096   +29 09 34.13  5.2925 5.1013  73.7 22.7 1161  21
2019 06 22 16  11 37 57.179   +29 09 19.03  5.2930 5.1013  73.7 22.7 1165  21
2019 06 22 17  11 37 58.263   +29 09 03.93  5.2935 5.1012  73.6 22.7 1169  21
2019 06 22 18  11 37 59.348   +29 08 48.82  5.2940 5.1011  73.6 22.7 1173  21